TimeCST,TemperatureF,Dew PointF,Humidity,Sea Level PressureIn,VisibilityMPH,Wind Direction,Wind SpeedMPH,Gust SpeedMPH,PrecipitationIn,Events,Conditions,WindDirDegrees,DateUTC
12:15 AM,-11.2,-18.4,70,30.27,10.0,NW,8.1,-,N/A,,Clear,320,2013-12-30 06:15:00
12:35 AM,-13.0,-18.4,77,30.28,10.0,NW,8.1,-,N/A,,Clear,310,2013-12-30 06:35:00
12:55 AM,-13.0,-20.2,70,30.27,10.0,NW,5.8,-,N/A,,Clear,320,2013-12-30 06:55:00
1:15 AM,-13.0,-18.4,77,30.27,10.0,NNW,5.8,-,N/A,,Clear,330,2013-12-30 07:15:00
1:35 AM,-13.0,-20.2,70,30.27,10.0,NW,5.8,-,N/A,,Clear,320,2013-12-30 07:35:00
1:55 AM,-13.0,-18.4,77,30.26,10.0,NW,5.8,-,N/A,,Clear,310,2013-12-30 07:55:00
2:15 AM,-11.2,-18.4,70,30.26,10.0,NNW,8.1,-,N/A,,Clear,330,2013-12-30 08:15:00
2:35 AM,-11.2,-18.4,70,30.26,10.0,NNW,5.8,-,N/A,,Clear,340,2013-12-30 08:35:00
2:55 AM,-11.2,-18.4,70,30.26,10.0,NNW,6.9,-,N/A,,Clear,330,2013-12-30 08:55:00
3:15 AM,-13.0,-20.2,70,30.26,10.0,NW,6.9,-,N/A,,Clear,310,2013-12-30 09:15:00
3:35 AM,-13.0,-18.4,77,30.25,10.0,NNW,5.8,-,N/A,,Clear,330,2013-12-30 09:35:00
3:55 AM,-11.2,-18.4,70,30.26,10.0,NNW,4.6,-,N/A,,Clear,330,2013-12-30 09:55:00
4:15 AM,-13.0,-20.2,70,30.26,10.0,NW,4.6,-,N/A,,Clear,310,2013-12-30 10:15:00
4:35 AM,-13.0,-20.2,70,30.26,10.0,WNW,4.6,-,N/A,,Clear,300,2013-12-30 10:35:00
4:55 AM,-13.0,-20.2,70,30.26,10.0,Calm,Calm,-,N/A,,Clear,0,2013-12-30 10:55:00
5:15 AM,-13.0,-18.4,77,30.26,10.0,Calm,Calm,-,N/A,,Clear,0,2013-12-30 11:15:00
5:35 AM,-14.8,-22.0,70,30.26,10.0,Calm,Calm,-,N/A,,Clear,0,2013-12-30 11:35:00
5:55 AM,-14.8,-22.0,70,30.27,10.0,South,3.5,-,N/A,,Clear,170,2013-12-30 11:55:00
6:15 AM,-14.8,-22.0,70,30.26,10.0,South,4.6,-,N/A,,Clear,170,2013-12-30 12:15:00
6:35 AM,-14.8,-22.0,70,30.27,10.0,South,3.5,-,N/A,,Partly Cloudy,170,2013-12-30 12:35:00
6:55 AM,-14.8,-22.0,70,30.26,-9999.0,SSE,3.5,-,N/A,,Mostly Cloudy,150,2013-12-30 12:55:00
7:15 AM,-14.8,-22.0,70,30.26,10.0,SSE,4.6,-,N/A,,Partly Cloudy,150,2013-12-30 13:15:00
7:35 AM,-14.8,-20.2,77,30.27,10.0,SE,3.5,-,N/A,,Clear,140,2013-12-30 13:35:00
7:55 AM,-14.8,-20.2,77,30.27,10.0,SE,4.6,-,N/A,,Clear,140,2013-12-30 13:55:00
8:15 AM,-13.0,-20.2,70,30.26,10.0,SE,4.6,-,N/A,,Clear,140,2013-12-30 14:15:00
8:35 AM,-11.2,-18.4,70,30.26,10.0,Calm,Calm,-,N/A,,Clear,0,2013-12-30 14:35:00
8:55 AM,-9.4,-16.6,71,30.26,10.0,SSE,3.5,-,N/A,,Clear,150,2013-12-30 14:55:00
9:15 AM,-9.4,-14.8,77,30.26,10.0,SE,4.6,-,N/A,,Clear,140,2013-12-30 15:15:00
9:35 AM,-7.6,-14.8,71,30.27,10.0,SSE,5.8,-,N/A,,Clear,160,2013-12-30 15:35:00
9:55 AM,-5.8,-13.0,71,30.27,10.0,SSE,6.9,-,N/A,,Clear,160,2013-12-30 15:55:00
10:15 AM,-5.8,-13.0,71,30.27,10.0,South,6.9,-,N/A,,Clear,170,2013-12-30 16:15:00
10:35 AM,-5.8,-13.0,71,30.27,10.0,South,5.8,-,N/A,,Clear,180,2013-12-30 16:35:00
10:55 AM,-4.0,-13.0,65,30.27,10.0,SSW,5.8,-,N/A,,Mostly Cloudy,200,2013-12-30 16:55:00
11:15 AM,-4.0,-13.0,65,30.26,10.0,SW,5.8,-,N/A,,Overcast,220,2013-12-30 17:15:00
11:35 AM,-2.2,-11.2,66,30.26,10.0,SSW,3.5,-,N/A,,Overcast,210,2013-12-30 17:35:00
11:55 AM,-2.2,-11.2,66,30.24,8.0,SSW,5.8,-,N/A,,Overcast,210,2013-12-30 17:55:00
12:15 PM,-2.2,-11.2,66,30.22,6.0,SE,5.8,-,N/A,Snow,Light Snow,140,2013-12-30 18:15:00
12:35 PM,-2.2,-9.4,71,30.20,2.5,SE,5.8,-,N/A,Snow,Light Snow,130,2013-12-30 18:35:00
12:55 PM,-0.4,-7.6,72,30.18,1.5,SE,8.1,-,N/A,Snow,Light Snow,130,2013-12-30 18:55:00
1:15 PM,-0.4,-7.6,72,30.17,2.0,SE,8.1,-,N/A,Snow,Light Snow,130,2013-12-30 19:15:00
1:35 PM,1.4,-5.8,72,30.15,1.2,SE,9.2,-,N/A,Snow,Light Snow,140,2013-12-30 19:35:00
1:55 PM,-0.4,-5.8,78,30.15,2.5,SE,8.1,-,N/A,Snow,Light Snow,140,2013-12-30 19:55:00
2:15 PM,1.4,-5.8,72,30.15,1.0,SE,6.9,-,N/A,Snow,Light Snow,140,2013-12-30 20:15:00
2:35 PM,1.4,-4.0,78,30.15,0.8,SSE,6.9,-,N/A,Snow,Light Snow,150,2013-12-30 20:35:00
2:55 PM,1.4,-4.0,78,30.15,1.5,SE,6.9,-,N/A,Snow,Light Snow,140,2013-12-30 20:55:00
3:15 PM,1.4,-4.0,78,30.15,0.8,SSE,8.1,-,N/A,Snow,Light Snow,150,2013-12-30 21:15:00
3:35 PM,1.4,-4.0,78,30.14,0.8,SE,10.4,-,N/A,Snow,Light Snow,130,2013-12-30 21:35:00
3:55 PM,1.4,-4.0,78,30.15,2.5,SE,9.2,-,N/A,Snow,Light Snow,140,2013-12-30 21:55:00
4:15 PM,1.4,-4.0,78,30.16,1.2,SE,10.4,-,N/A,Snow,Light Snow,140,2013-12-30 22:15:00
4:35 PM,1.4,-2.2,85,30.16,1.2,SE,6.9,-,N/A,Snow,Light Snow,140,2013-12-30 22:35:00
4:55 PM,1.4,-2.2,85,30.17,1.2,SSE,5.8,-,N/A,Snow,Light Snow,160,2013-12-30 22:55:00
5:15 PM,1.4,-2.2,85,30.17,2.0,SSE,4.6,-,N/A,Snow,Light Snow,160,2013-12-30 23:15:00
5:35 PM,1.4,-2.2,85,30.15,2.0,SE,6.9,-,N/A,Snow,Light Snow,140,2013-12-30 23:35:00
5:55 PM,1.4,-4.0,78,30.16,7.0,SSE,6.9,-,N/A,Snow,Light Snow,160,2013-12-30 23:55:00
6:15 PM,1.4,-2.2,85,30.16,8.0,SSE,3.5,-,N/A,,Overcast,150,2013-12-31 00:15:00
6:35 PM,1.4,-2.2,85,30.16,5.0,Calm,Calm,-,N/A,Snow,Light Snow,0,2013-12-31 00:35:00
6:55 PM,3.2,-2.2,78,30.17,3.0,Calm,Calm,-,N/A,Snow,Light Snow,0,2013-12-31 00:55:00
7:15 PM,3.2,-2.2,78,30.18,3.0,Calm,Calm,-,N/A,Snow,Light Snow,0,2013-12-31 01:15:00
7:35 PM,3.2,-2.2,78,30.18,3.0,Calm,Calm,-,N/A,Snow,Light Snow,0,2013-12-31 01:35:00
7:55 PM,3.2,-2.2,78,30.17,3.0,Calm,Calm,-,N/A,Snow,Light Snow,0,2013-12-31 01:55:00
8:15 PM,3.2,-2.2,78,30.17,3.0,Calm,Calm,-,N/A,Snow,Light Snow,0,2013-12-31 02:15:00
8:35 PM,3.2,-2.2,78,30.18,6.0,Calm,Calm,-,N/A,Snow,Light Snow,0,2013-12-31 02:35:00
8:55 PM,1.4,-2.2,85,30.19,10.0,Calm,Calm,-,N/A,,Overcast,0,2013-12-31 02:55:00
9:15 PM,1.4,-2.2,85,30.17,10.0,Calm,Calm,-,N/A,,Overcast,0,2013-12-31 03:15:00
9:35 PM,1.4,-2.2,85,30.17,10.0,Calm,Calm,-,N/A,,Mostly Cloudy,0,2013-12-31 03:35:00
9:55 PM,-0.4,-4.0,85,30.18,10.0,North,3.5,-,N/A,,Scattered Clouds,360,2013-12-31 03:55:00
10:15 PM,-0.4,-4.0,85,30.19,10.0,North,3.5,-,N/A,,Partly Cloudy,350,2013-12-31 04:15:00
10:35 PM,-0.4,-5.8,78,30.19,10.0,North,4.6,-,N/A,,Clear,360,2013-12-31 04:35:00
10:55 PM,-5.8,-9.4,84,30.20,9.0,NNW,3.5,-,N/A,,Clear,330,2013-12-31 04:55:00
11:15 PM,-5.8,-9.4,84,30.20,9.0,NW,3.5,-,N/A,,Clear,310,2013-12-31 05:15:00
11:35 PM,-5.8,-11.2,77,30.20,0.5,NW,4.6,-,N/A,,Haze,310,2013-12-31 05:35:00
11:55 PM,-5.8,-11.2,77,30.20,0.2,NW,4.6,-,N/A,,Haze,320,2013-12-31 05:55:00